When you browse on this site, cookies collect data to enhance your experience and personalize the content and advertising you see.
Visit our Privacy Policy to learn more. By continuing to use the site, you agree to this use of cookies and data.
  • en Suisse
  • Liste des pays
  • À 7 jours
  • Température de l'eau
  • Carte satellitaire
  • Carte météo
  • Widgets météo
  • user-avatar
    Se connecter

    Météo par heure à Siempang

    Ce jour, 19 Décembre, Mercredi

    Heure Température Précipitation Vent Pression Humidité
    00:00 +22°C° 0 mm 0 m/s 755 mmHg 73%
    01:00 +21°C° 0 mm 0 m/s 755 mmHg 77%
    02:00 +21°C° 0 mm 0 m/s 755 mmHg 79%
    03:00 +20°C° 0 mm 0 m/s 755 mmHg 80%
    04:00 +20°C° 0 mm 0 m/s 755 mmHg 82%
    05:00 +20°C° 0 mm 0 m/s 755 mmHg 81%
    06:00 +20°C° 0 mm 0 m/s 755 mmHg 80%
    07:00 +21°C° 0 mm 0 m/s 756 mmHg 78%
    08:00 +24°C° 0 mm 0 m/s 756 mmHg 67%
    09:00 +29°C° 0 mm 1 m/s 755 mmHg 56%
    10:00 +32°C° 0 mm 1 m/s 755 mmHg 44%
    11:00 +34°C° 0 mm 1 m/s 754 mmHg 40%
    12:00 +35°C° 0 mm 1 m/s 754 mmHg 37%
    13:00 +37°C° 0 mm 1 m/s 753 mmHg 33%
    14:00 +37°C° 0 mm 1 m/s 752 mmHg 33%
    15:00 +34°C° 0 mm 0 m/s 752 mmHg 34%
    16:00 +34°C° 0 mm 0 m/s 751 mmHg 35%
    17:00 +31°C° 0 mm 0 m/s 752 mmHg 42%
    18:00 +29°C° 0 mm 0 m/s 752 mmHg 49%
    19:00 +26°C° 0 mm 0 m/s 753 mmHg 56%
    20:00 +25°C° 0 mm 0 m/s 753 mmHg 59%
    21:00 +25°C° 0 mm 0 m/s 753 mmHg 62%
    22:00 +26°C° 0 mm 1 m/s 754 mmHg 65%
    23:00 +26°C° 0 mm 1 m/s 754 mmHg 70%

    Demain, 20 Décembre, Jeudi

    Heure Température Précipitation Vent Pression Humidité
    00:00 +25°C° 0 mm 1 m/s 754 mmHg 74%
    01:00 +25°C° 0 mm 1 m/s 754 mmHg 78%
    02:00 +22°C° 0 mm 0 m/s 754 mmHg 81%
    03:00 +22°C° 0 mm 0 m/s 754 mmHg 83%
    04:00 +21°C° 0 mm 0 m/s 754 mmHg 85%
    05:00 +22°C° 0 mm 0 m/s 754 mmHg 84%
    06:00 +22°C° 0 mm 0 m/s 754 mmHg 83%
    07:00 +22°C° 0 mm 0 m/s 754 mmHg 82%
    08:00 +27°C° 0 mm 1 m/s 754 mmHg 71%
    09:00 +30°C° 0 mm 1 m/s 754 mmHg 60%
    10:00 +34°C° 0 mm 1 m/s 754 mmHg 48%
    11:00 +35°C° 0 mm 1 m/s 753 mmHg 44%
    12:00 +36°C° 0 mm 1 m/s 752 mmHg 40%
    13:00 +39°C° 0 mm 1 m/s 752 mmHg 36%
    14:00 +37°C° 0 mm 1 m/s 751 mmHg 37%
    15:00 +37°C° 0 mm 1 m/s 750 mmHg 38%
    16:00 +36°C° 0 mm 1 m/s 749 mmHg 39%
    17:00 +34°C° 0 mm 1 m/s 750 mmHg 45%
    18:00 +29°C° 0 mm 0 m/s 750 mmHg 52%
    19:00 +27°C° 0 mm 0 m/s 751 mmHg 59%
    20:00 +26°C° 0 mm 0 m/s 751 mmHg 61%
    21:00 +26°C° 0 mm 0 m/s 752 mmHg 63%
    22:00 +25°C° 0 mm 0 m/s 752 mmHg 65%
    23:00 +25°C° 0 mm 0 m/s 752 mmHg 67%

    Après-demain, 21 Décembre, Vendredi

    Heure Température Précipitation Vent Pression Humidité
    00:00 +24°C° 0 mm 0 m/s 752 mmHg 69%
    01:00 +24°C° 0 mm 0 m/s 752 mmHg 71%
    02:00 +23°C° 0 mm 0 m/s 752 mmHg 74%
    03:00 +23°C° 0 mm 0 m/s 752 mmHg 77%
    04:00 +23°C° 0 mm 0 m/s 751 mmHg 79%
    05:00 +23°C° 0 mm 0 m/s 752 mmHg 80%
    06:00 +23°C° 0 mm 0 m/s 752 mmHg 81%
    07:00 +25°C° 0 mm 1 m/s 752 mmHg 82%
    08:00 +28°C° 0 mm 1 m/s 753 mmHg 72%
    09:00 +30°C° 0 mm 1 m/s 753 mmHg 63%
    10:00 +33°C° 0 mm 1 m/s 753 mmHg 54%
    11:00 +35°C° 0 mm 1 m/s 752 mmHg 49%
    12:00 +35°C° 0 mm 0 m/s 751 mmHg 43%
    13:00 +36°C° 0 mm 0 m/s 750 mmHg 38%
    14:00 +35°C° 0 mm 0 m/s 750 mmHg 41%
    15:00 +34°C° 0 mm 0 m/s 749 mmHg 44%
    16:00 +33°C° 0 mm 0 m/s 749 mmHg 47%
    17:00 +31°C° 0 mm 0 m/s 750 mmHg 52%
    18:00 +29°C° 0 mm 0 m/s 750 mmHg 57%
    19:00 +27°C° 0 mm 0 m/s 751 mmHg 62%
    20:00 +27°C° 0 mm 0 m/s 751 mmHg 64%
    21:00 +26°C° 0 mm 0 m/s 751 mmHg 66%
    22:00 +26°C° 0 mm 0 m/s 751 mmHg 68%
    23:00 +25°C° 0 mm 0 m/s 751 mmHg 69%

    22 Décembre, Samedi

    Heure Température Précipitation Vent Pression Humidité
    00:00 +25°C° 0 mm 0 m/s 751 mmHg 69%
    01:00 +25°C° 0 mm 0 m/s 751 mmHg 70%
    02:00 +25°C° 0 mm 0 m/s 751 mmHg 72%
    03:00 +24°C° 0 mm 0 m/s 751 mmHg 75%
    04:00 +24°C° 0 mm 0 m/s 751 mmHg 77%
    05:00 +24°C° 0 mm 0 m/s 751 mmHg 79%
    06:00 +26°C° 0 mm 1 m/s 752 mmHg 80%
    07:00 +26°C° 0 mm 1 m/s 752 mmHg 81%
    08:00 +28°C° 0 mm 1 m/s 752 mmHg 74%
    09:00 +30°C° 0 mm 1 m/s 752 mmHg 66%
    10:00 +32°C° 0 mm 1 m/s 753 mmHg 59%
    11:00 +33°C° 0 mm 1 m/s 752 mmHg 52%
    12:00 +35°C° 0 mm 1 m/s 751 mmHg 46%
    13:00 +37°C° 0 mm 1 m/s 750 mmHg 40%
    14:00 +37°C° 0 mm 1 m/s 750 mmHg 39%
    15:00 +36°C° 0 mm 1 m/s 749 mmHg 38%
    16:00 +36°C° 0 mm 1 m/s 749 mmHg 38%
    17:00 +34°C° 0 mm 1 m/s 750 mmHg 44%
    18:00 +31°C° 0 mm 1 m/s 750 mmHg 50%
    19:00 +29°C° 0 mm 1 m/s 751 mmHg 56%
    20:00 +28°C° 0 mm 1 m/s 751 mmHg 57%
    21:00 +28°C° 0 mm 1 m/s 752 mmHg 58%
    22:00 +27°C° 0 mm 1 m/s 752 mmHg 59%
    23:00 +26°C° 0 mm 1 m/s 752 mmHg 61%

    23 Décembre, Dimanche

    Heure Température Précipitation Vent Pression Humidité
    00:00 +25°C° 0 mm 1 m/s 752 mmHg 63%
    01:00 +23°C° 0 mm 0 m/s 751 mmHg 65%
    02:00 +22°C° 0 mm 0 m/s 751 mmHg 67%
    03:00 +22°C° 0 mm 0 m/s 751 mmHg 68%
    04:00 +21°C° 0 mm 0 m/s 750 mmHg 70%
    05:00 +22°C° 0 mm 0 m/s 751 mmHg 70%
    06:00 +22°C° 0 mm 0 m/s 751 mmHg 71%
    07:00 +22°C° 0 mm 0 m/s 752 mmHg 71%
    08:00 +25°C° 0 mm 0 m/s 752 mmHg 62%
    09:00 +30°C° 0 mm 1 m/s 752 mmHg 53%
    10:00 +33°C° 0 mm 1 m/s 752 mmHg 44%
    11:00 +35°C° 0 mm 1 m/s 751 mmHg 41%
    12:00 +36°C° 0 mm 1 m/s 750 mmHg 38%
    13:00 +39°C° 0 mm 1 m/s 750 mmHg 35%
    14:00 +37°C° 0 mm 1 m/s 749 mmHg 39%
    15:00 +35°C° 0 mm 1 m/s 749 mmHg 43%
    16:00 +34°C° 0 mm 1 m/s 749 mmHg 47%
    17:00 +33°C° 0.1 mm 1 m/s 749 mmHg 52%
    18:00 +31°C° 0.1 mm 1 m/s 750 mmHg 57%
    19:00 +30°C° 0.1 mm 1 m/s 751 mmHg 61%
    20:00 +29°C° 0 mm 1 m/s 751 mmHg 65%
    21:00 +28°C° 0 mm 1 m/s 751 mmHg 69%
    22:00 +27°C° 0 mm 1 m/s 752 mmHg 72%
    23:00 +27°C° 0 mm 1 m/s 751 mmHg 74%

    24 Décembre, Lundi

    Heure Température Précipitation Vent Pression Humidité
    00:00 +24°C° 0 mm 0 m/s 751 mmHg 76%
    01:00 +24°C° 0 mm 0 m/s 751 mmHg 78%
    02:00 +24°C° 0 mm 0 m/s 751 mmHg 79%
    03:00 +23°C° 0 mm 0 m/s 751 mmHg 80%
    04:00 +23°C° 0 mm 0 m/s 750 mmHg 81%
    05:00 +23°C° 0 mm 0 m/s 751 mmHg 81%
    06:00 +23°C° 0 mm 0 m/s 751 mmHg 80%
    07:00 +24°C° 0 mm 0 m/s 752 mmHg 79%
    08:00 +26°C° 0 mm 0 m/s 752 mmHg 69%
    09:00 +31°C° 0 mm 1 m/s 752 mmHg 59%
    10:00 +34°C° 0 mm 1 m/s 752 mmHg 49%
    11:00 +35°C° 0 mm 1 m/s 751 mmHg 45%
    12:00 +37°C° 0 mm 1 m/s 750 mmHg 41%
    13:00 +39°C° 0 mm 1 m/s 749 mmHg 37%
    14:00 +37°C° 0.1 mm 1 m/s 749 mmHg 41%
    15:00 +34°C° 0.1 mm 0 m/s 749 mmHg 44%
    16:00 +32°C° 0.1 mm 0 m/s 748 mmHg 48%
    17:00 +30°C° 0.3 mm 0 m/s 749 mmHg 56%
    18:00 +31°C° 0.3 mm 1 m/s 749 mmHg 64%
    19:00 +29°C° 0.3 mm 1 m/s 750 mmHg 72%
    20:00 +28°C° 0.5 mm 1 m/s 750 mmHg 77%
    21:00 +27°C° 0.5 mm 1 m/s 751 mmHg 83%
    22:00 +24°C° 0.5 mm 0 m/s 751 mmHg 88%
    23:00 +24°C° 0.1 mm 0 m/s 751 mmHg 90%
    Voir plus